Lapse_Rate
5.1 5.0 5.2 5.0 5.8 5.9 6.1 6.0 5.6 5.7 5.8 5.8 6.0 6.2 6.0 5.9 5.9 5.9 5.8 5.9 6.0 6.1 6.1 6.3 6.3 6.4 6.4 6.4 6.5 6.6 6.7 6.8 6.9 7.0 7.0 7.0 7.1 7.1 6.9 6.8 6.8 6.7 6.7 6.5 6.3 6.6 7.2
5.2 5.0 4.9 4.5 5.1 5.4 5.8 5.9 5.8 5.8 5.5 5.8 5.8 5.9 6.0 6.0 6.0 5.9 5.9 5.9 6.1 6.1 6.1 6.3 6.3 6.4 6.5 6.5 6.6 6.6 6.6 6.7 6.8 6.8 7.0 7.1 7.1 6.9 6.8 6.7 6.8 6.9 6.8 6.5 6.3 7.0 7.4
5.3 5.1 5.4 5.4 5.9 5.2 5.7 5.9 6.1 5.6 5.7 5.6 5.7 5.8 5.7 5.9 6.0 6.0 6.0 6.0 6.0 6.0 6.2 6.2 6.3 6.4 6.6 6.5 6.6 6.5 6.6 6.7 6.8 6.8 6.9 7.0 7.0 6.8 6.6 6.6 6.7 6.8 6.7 6.5 6.7 7.0 7.2
5.0 5.4 5.2 5.3 5.5 5.3 5.5 5.4 5.9 6.1 6.0 5.9 5.7 5.7 5.6 5.6 5.9 6.0 5.9 5.9 6.1 6.3 6.3 6.4 6.4 6.5 6.7 6.6 6.6 6.7 6.6 6.6 6.8 6.7 6.8 6.9 6.8 6.5 6.7 6.5 6.4 6.6 6.7 6.7 6.8 7.0 7.2
5.4 5.5 5.2 5.5 5.4 5.5 5.4 5.3 5.7 5.7 5.7 5.9 5.6 5.8 5.6 5.7 5.6 5.8 5.8 5.8 6.1 6.2 6.5 6.4 6.4 6.5 6.8 6.9 6.9 6.8 6.8 6.8 6.8 6.6 6.6 6.7 6.6 6.3 6.5 6.5 6.4 6.7 6.8 7.0 7.0 7.3 7.6
5.7 5.4 5.2 5.6 5.7 5.7 5.8 5.0 5.2 5.3 5.6 5.7 5.7 5.7 5.8 5.8 5.7 5.6 5.8 5.9 6.0 6.2 6.0 6.2 6.5 6.6 6.7 6.9 6.9 6.8 6.8 6.7 6.6 6.5 6.5 6.7 6.5 6.3 6.3 6.5 6.5 6.8 7.0 7.1 7.2 7.2 7.5
5.6 5.7 5.2 5.4 5.7 5.6 5.9 5.3 5.2 5.4 5.3 5.5 5.8 5.6 5.8 6.0 5.6 5.7 6.1 6.5 6.1 6.1 6.1 6.2 6.3 6.5 6.7 6.9 6.9 6.7 6.7 6.6 6.5 6.5 6.5 6.5 6.4 6.2 6.2 6.2 6.4 7.0 7.2 7.1 6.9 7.1 7.3
5.5 5.6 5.3 5.5 5.6 5.5 5.6 5.6 5.4 5.1 5.3 5.3 5.7 5.3 5.4 5.7 5.4 5.5 6.1 6.2 6.0 5.8 6.3 6.2 6.4 6.6 6.9 6.7 6.6 6.6 6.6 6.5 6.7 6.5 6.3 6.5 6.5 6.2 6.1 6.1 6.4 7.0 7.1 7.0 7.0 6.9 7.1
5.2 5.4 5.4 5.5 5.7 5.7 5.7 5.7 5.7 5.6 5.7 6.1 5.2 5.1 5.2 5.4 5.1 5.8 6.2 6.4 6.1 5.9 5.8 6.8 6.6 6.9 7.1 6.6 6.7 6.9 6.5 6.6 6.5 6.6 6.3 6.6 6.3 6.2 6.2 6.2 6.6 6.8 7.1 7.1 7.0 6.8 7.0
4.9 5.0 5.4 5.5 5.6 5.7 5.7 5.9 5.7 5.7 5.6 5.4 5.2 4.8 5.1 5.3 5.5 6.2 6.4 6.3 5.9 5.7 5.9 6.6 6.7 7.0 7.1 6.9 6.3 6.9 6.0 6.3 6.5 6.7 6.5 6.9 6.6 6.5 6.4 6.5 6.7 6.8 7.0 7.0 7.0 7.0 6.9
4.7 5.0 5.9 5.8 5.8 5.7 5.8 5.8 6.0 5.8 5.6 5.3 5.1 4.9 4.8 4.8 5.5 6.0 6.1 6.0 5.9 5.7 5.9 6.5 6.0 6.1 6.7 6.7 6.1 6.6 6.6 6.0 6.8 6.7 6.8 7.1 6.9 6.9 6.9 6.9 6.6 6.7 6.9 6.9 6.9 6.9 6.9
4.5 4.6 5.1 5.7 5.8 5.8 5.8 5.8 5.7 5.7 5.7 5.5 5.0 5.2 4.6 4.3 5.8 5.8 5.5 5.1 5.2 5.8 5.2 6.6 6.3 6.3 6.4 6.1 6.0 6.0 6.3 6.2 6.6 6.5 6.5 6.8 6.8 6.8 6.9 6.5 6.5 6.7 6.9 6.9 6.9 6.8 6.8
4.6 4.8 5.0 5.5 5.6 5.9 5.8 5.6 5.6 5.7 5.4 5.6 5.3 4.9 4.8 4.9 5.4 5.3 5.1 5.1 4.9 4.8 6.6 6.4 6.5 6.5 6.3 6.2 5.9 5.8 6.2 6.3 6.4 6.0 6.1 6.6 6.8 6.8 6.8 6.6 6.6 6.8 6.9 6.9 6.9 6.8 7.0
5.2 5.0 5.2 5.6 6.0 5.8 6.1 5.6 5.6 5.7 5.2 5.2 5.3 5.0 4.9 5.4 5.3 5.0 4.9 5.2 4.7 5.7 6.5 6.7 6.7 6.6 6.4 6.4 6.2 6.2 6.3 6.2 6.2 6.3 6.5 6.5 6.6 6.7 6.9 6.9 7.0 6.8 6.9 7.3 6.9 6.9 6.8
4.9 4.9 5.1 5.3 6.1 6.1 6.0 5.7 5.7 5.5 5.2 5.1 5.2 5.1 5.3 5.8 5.4 5.0 5.0 4.8 5.0 5.9 6.8 6.9 6.8 6.7 6.7 6.6 6.5 6.4 6.5 6.4 6.3 6.5 6.7 6.7 6.6 6.9 7.0 6.9 6.7 6.9 6.9 7.1 7.0 6.2 6.4
5.5 5.4 5.3 5.2 5.6 6.2 6.3 5.7 5.8 5.5 5.1 5.1 5.3 5.3 5.7 5.9 5.7 5.4 5.1 5.3 5.9 6.1 6.5 6.8 6.9 6.9 6.7 6.7 6.6 6.6 6.6 6.7 6.7 6.7 6.8 6.8 6.8 6.9 7.0 6.9 6.9 7.2 7.1 7.0 7.0 6.7 6.7
5.3 5.5 5.6 5.3 5.3 5.8 6.2 6.0 6.0 5.9 5.3 5.5 5.5 5.3 5.7 6.1 5.9 5.4 5.0 5.4 6.3 6.1 6.6 6.4 6.5 6.8 6.8 6.7 6.7 6.6 6.8 6.8 6.8 6.8 6.9 7.0 7.1 6.9 7.0 7.0 7.2 7.2 7.2 7.2 7.1 6.9 7.0
5.6 6.0 5.9 5.6 5.1 5.3 6.2 5.9 6.0 6.0 5.6 6.2 5.6 5.6 6.0 6.1 6.0 5.2 4.9 5.5 6.2 6.1 6.4 6.3 6.5 6.4 6.3 6.4 6.5 6.5 7.0 7.1 6.9 7.0 7.0 7.0 7.0 7.0 7.0 7.1 7.2 7.2 7.2 7.3 7.2 6.7 6.8
5.9 5.8 5.9 6.2 5.5 5.2 5.7 6.6 5.6 5.6 6.1 6.0 5.9 5.9 6.0 5.4 5.6 5.3 5.0 5.5 5.7 5.7 5.9 6.3 6.2 6.1 6.1 6.0 6.2 6.6 6.8 6.9 6.9 7.0 7.0 7.0 6.9 7.0 6.9 6.9 7.1 7.1 7.3 7.2 7.1 7.0 7.0
5.8 5.7 6.0 6.0 6.0 5.5 5.2 6.0 5.7 5.8 6.4 6.3 6.2 6.2 5.8 5.7 5.4 5.3 5.2 5.4 5.6 5.5 5.8 6.0 6.2 5.9 5.7 5.9 5.9 6.0 6.3 6.6 6.8 6.9 7.0 7.0 6.8 6.8 7.0 6.9 7.0 7.0 7.2 7.1 6.8 6.7 7.0
5.9 6.0 6.5 6.1 5.8 5.8 5.3 5.0 6.2 5.6 5.8 6.2 6.3 5.9 5.6 5.2 5.8 4.9 5.3 5.4 5.6 5.4 5.7 6.1 6.1 6.2 5.7 5.2 5.5 5.7 6.2 6.4 6.3 6.4 6.5 6.5 6.4 6.5 6.6 6.6 6.6 6.6 6.7 6.6 6.5 6.7 6.6
6.1 6.3 6.5 6.2 6.1 5.9 5.3 5.1 5.7 4.9 5.2 5.7 6.1 5.5 5.6 5.8 5.6 5.7 5.5 5.2 5.4 5.4 5.6 6.0 6.3 6.3 5.7 5.7 5.6 5.6 5.8 6.2 5.8 5.8 5.9 5.9 5.8 5.8 5.8 5.8 5.8 5.8 6.3 6.3 6.4 6.6 6.5
6.7 6.8 6.6 6.7 6.6 5.9 5.7 5.1 5.3 6.6 5.5 6.0 6.1 5.6 5.4 5.5 5.5 5.5 5.4 5.1 5.5 5.8 5.7 6.2 6.2 5.8 5.7 5.9 5.2 4.9 5.0 5.4 5.6 5.6 5.6 5.4 5.3 5.3 5.3 5.4 5.2 5.2 6.4 6.4 6.1 6.4 6.3
6.5 5.7 5.4 6.2 6.7 6.1 5.8 5.6 5.4 5.5 6.4 5.9 6.1 5.4 5.8 5.6 5.6 5.6 5.6 5.7 5.5 6.0 6.0 6.2 6.2 5.7 5.7 5.5 5.3 5.1 5.3 5.4 5.5 5.3 5.1 5.1 5.4 5.5 5.0 5.0 4.7 5.7 6.0 5.9 6.1 6.6 6.1
6.9 6.8 5.9 5.5 6.3 6.5 6.0 5.7 5.7 5.8 6.1 6.3 6.2 6.1 5.7 5.7 5.8 5.7 5.6 5.6 5.6 5.8 5.9 5.6 6.0 5.8 5.5 5.3 5.2 5.1 5.3 5.2 5.3 5.2 5.3 5.4 5.5 5.3 4.9 5.1 5.5 5.9 6.0 6.0 6.2 6.9 6.2
7.0 6.2 5.9 5.7 5.6 6.8 5.9 6.3 6.0 5.9 5.9 6.0 6.3 6.1 6.1 6.0 5.9 5.7 5.5 5.6 5.2 6.2 6.1 6.2 5.9 5.9 5.6 5.4 5.4 5.1 5.4 5.2 5.7 5.4 5.6 5.6 5.7 5.4 4.9 4.8 4.8 5.5 6.0 6.1 6.1 6.4 6.2
7.3 6.8 6.1 6.3 6.5 6.3 6.3 6.3 6.1 6.1 6.1 6.0 6.6 6.2 5.6 5.7 5.8 5.7 5.8 5.7 6.2 6.1 6.3 6.0 6.0 5.5 5.6 5.5 5.3 5.2 5.3 5.6 5.6 5.5 5.7 5.8 5.7 5.5 5.3 5.2 5.0 5.4 5.7 6.1 5.5 6.0 6.2
6.9 6.7 6.5 6.7 6.5 6.8 6.9 6.6 6.0 6.3 6.2 6.3 6.3 6.0 5.6 6.2 5.8 5.9 5.7 5.7 5.9 6.0 6.2 6.2 5.8 5.4 5.4 5.4 5.4 5.1 5.0 5.1 5.3 5.6 5.7 6.1 6.1 5.8 5.7 5.1 5.0 5.7 5.6 5.8 6.1 6.1 6.0
7.2 6.6 6.4 6.0 6.0 6.6 6.6 7.0 6.6 6.5 6.0 6.3 6.3 6.0 5.6 5.5 5.4 5.7 5.7 5.6 6.0 5.6 5.7 5.8 5.7 6.1 6.0 5.5 5.3 5.4 5.3 5.3 5.2 5.3 5.6 5.7 6.0 6.2 5.8 6.0 5.9 5.9 6.1 6.0 6.1 6.3 6.0
Wind_Speed
24 22 21 20 18 18 16 13 11 9 7 6 7 9 11 14 19 22 24 27 28 27 26 25 23 23 7 5 3 2 3 7 2 2 6 3 6 2 3 1 2 1 2 4 6 9 5
27 27 25 22 23 21 18 15 12 12 10 8 8 9 12 14 16 21 25 27 29 28 26 23 17 12 3 3 1 3 5 3 3 4 4 5 3 1 4 1 1 3 4 8 3 6 2
28 27 27 27 28 23 20 16 13 12 13 9 9 10 10 14 17 20 24 28 30 27 25 17 9 2 3 9 1 6 4 0 1 2 3 2 2 2 2 1 2 1 4 2 2 8 4
28 28 28 28 29 26 23 19 15 13 15 11 10 11 11 12 16 21 25 29 29 28 14 7 5 1 6 2 5 5 1 2 2 1 2 1 2 4 2 1 3 2 2 2 5 12 2
30 28 29 28 29 27 25 22 20 17 15 12 11 10 11 12 15 21 27 32 28 10 4 4 1 1 7 8 0 1 1 2 3 2 4 3 4 3 2 3 2 6 3 3 4 11 2
28 31 29 28 29 26 26 25 22 20 15 14 11 10 12 10 14 20 29 27 5 3 0 1 1 2 3 2 4 3 1 1 4 3 3 5 4 2 2 1 3 1 2 1 2 5 13
30 25 31 28 27 26 26 26 26 24 19 14 12 10 10 9 12 17 14 4 4 3 4 3 2 4 4 7 3 2 2 4 2 5 2 3 2 2 3 2 3 3 1 1 2 2 7
27 28 26 26 27 26 27 27 27 26 20 16 13 9 5 9 10 13 2 4 3 1 7 5 7 8 5 2 4 3 1 4 2 3 3 2 2 5 2 2 2 2 3 2 1 5 5
28 25 26 26 26 27 26 27 29 27 22 18 14 9 2 8 10 2 2 3 2 2 3 6 4 4 3 9 7 6 4 3 3 4 4 3 1 6 2 1 3 3 3 3 2 5 6
28 29 27 26 28 28 28 27 28 27 25 21 15 8 3 9 1 0 1 2 3 1 3 5 3 4 3 4 4 6 6 5 2 8 5 3 1 4 3 4 5 2 6 3 4 4 2
26 27 27 26 28 28 29 28 27 28 26 20 14 10 6 6 3 2 2 6 1 0 3 1 2 1 2 5 2 1 2 3 8 6 4 3 4 3 3 4 5 2 3 2 1 2 2
19 26 26 26 28 28 29 29 29 28 23 18 17 17 14 2 1 1 3 2 2 2 7 1 2 4 3 3 1 3 3 4 3 5 0 4 1 3 3 3 2 5 4 5 4 1 2
20 25 24 24 24 26 28 31 32 29 27 24 25 22 11 6 4 6 3 3 2 4 2 2 1 1 2 3 2 3 4 4 5 5 5 1 4 2 3 4 2 3 3 1 1 1 2
17 20 24 24 24 26 28 31 33 31 28 26 26 21 7 4 8 9 4 2 4 5 4 2 1 2 3 1 1 2 5 4 1 3 3 6 2 5 4 5 6 6 5 4 3 2 1
18 14 25 26 26 26 27 31 34 34 29 26 25 4 3 5 10 5 3 3 6 5 2 2 1 1 1 2 2 1 2 3 2 4 3 4 2 0 2 2 2 4 3 2 6 2 1
20 14 24 28 27 26 27 29 32 34 33 34 8 5 4 15 15 3 3 6 4 2 2 0 2 1 3 4 2 2 2 1 1 1 2 4 4 1 2 2 8 3 7 3 1 3 3
19 21 9 29 26 26 26 28 34 35 36 37 5 7 5 19 5 2 4 4 4 3 0 3 1 2 3 2 2 1 1 1 1 1 3 2 1 0 0 4 3 3 2 5 4 2 2
15 14 18 26 28 27 27 29 32 38 39 24 6 5 8 11 4 3 5 5 4 4 1 2 2 1 2 1 3 2 1 1 2 2 4 1 3 2 2 0 1 1 2 4 3 4 2
15 12 15 16 27 28 27 25 33 39 40 9 5 3 5 3 8 6 3 5 3 4 4 3 3 0 1 0 2 2 1 1 4 1 3 4 1 2 2 1 1 1 2 4 5 3 7
20 16 12 11 28 26 27 25 28 31 39 6 4 4 2 2 1 13 9 7 6 1 3 3 4 3 2 1 2 1 1 2 3 2 5 3 3 3 5 2 2 3 3 3 3 2 4
16 13 12 18 26 29 25 26 27 35 25 4 3 3 4 6 7 12 16 13 11 5 1 3 2 5 5 3 1 4 2 0 1 0 3 2 2 1 2 3 2 1 2 4 5 3 6
17 13 12 16 15 31 28 27 31 36 20 2 5 5 3 1 11 15 15 14 19 5 8 4 4 8 7 6 7 7 5 3 2 2 2 3 2 1 3 2 4 4 2 5 8 6 11
16 12 10 12 12 27 31 33 34 34 17 3 1 2 5 2 11 14 11 8 11 11 3 7 11 5 7 12 6 1 2 3 4 3 2 2 4 3 1 2 4 6 6 9 5 5 5
17 17 15 15 16 14 30 31 35 34 18 3 3 3 4 4 7 10 15 8 12 11 7 3 5 8 5 4 6 4 2 1 3 2 2 4 3 2 2 2 3 1 4 3 7 7 9
18 15 13 12 12 13 22 32 33 33 16 2 3 3 4 4 5 6 9 8 6 4 6 5 5 5 6 3 3 3 2 1 2 5 3 1 4 2 2 3 5 5 3 4 1 4 7
18 16 15 12 11 21 15 34 34 32 17 3 2 3 4 6 6 6 10 9 6 5 3 2 2 2 3 3 3 5 4 4 4 2 7 5 4 3 2 2 4 4 4 4 3 8 1
14 15 15 12 9 9 17 33 34 34 22 4 2 3 4 4 2 5 5 10 7 4 4 2 4 3 1 3 2 3 4 4 6 8 5 3 2 5 4 3 6 4 5 5 2 5 1
14 13 11 8 9 9 14 32 34 33 26 5 2 3 5 3 1 1 3 5 4 4 5 4 4 1 2 4 4 4 3 6 4 6 7 7 7 4 3 4 8 7 5 6 5 2 3
16 16 12 14 13 12 19 27 35 35 28 13 2 2 4 6 3 2 3 2 1 4 5 1 2 4 4 4 2 3 2 3 4 4 0 4 6 5 8 6 1 5 4 3 3 4 4
Wind_Direction
210 213 220 228 232 233 229 229 241 240 253 270 300 317 329 336 338 339 337 338 337 336 336 336 334 339 4 5 270 5 321 346 10 45 49 58 54 86 83 12 358 46 316 279 301 300 268
210 210 218 222 226 226 232 230 233 252 257 268 286 307 322 332 337 336 335 333 331 329 330 329 331 333 45 317 107 5 350 347 43 49 36 47 96 100 107 91 94 308 284 295 297 338 37
209 208 210 214 219 219 223 230 235 243 261 266 285 301 317 329 332 334 334 329 324 323 323 326 323 1 95 240 78 336 327 332 299 77 83 75 134 116 150 151 339 324 314 334 38 359 56
212 206 208 212 217 217 214 221 228 247 259 269 281 298 310 324 331 333 330 324 320 317 318 337 331 355 248 220 307 309 207 282 252 163 102 100 108 99 60 18 32 41 54 95 29 3 61
216 209 207 209 214 214 218 212 222 226 247 259 274 289 301 321 335 334 328 319 317 318 313 300 356 65 269 314 66 346 185 120 109 86 38 80 59 58 37 77 74 23 109 26 48 14 325
223 214 209 205 207 209 215 219 219 230 228 248 259 279 291 325 338 337 328 319 323 324 301 240 70 355 303 312 305 335 173 104 98 94 37 47 57 55 45 97 145 84 86 1 4 13 61
218 210 206 204 204 203 211 215 218 220 221 236 251 255 293 327 339 343 347 0 10 348 27 236 249 269 275 304 311 358 111 98 67 60 103 21 97 206 153 113 118 126 172 246 69 119 69
212 215 212 201 202 199 204 207 215 218 218 221 236 258 296 311 331 338 353 70 135 192 307 251 246 257 265 67 311 292 127 125 116 145 130 57 229 214 162 141 151 162 167 230 89 97 85
211 213 215 212 211 203 204 202 207 212 210 225 223 227 261 295 316 38 23 103 309 158 292 292 215 242 214 160 216 236 152 121 132 142 170 160 182 119 161 223 163 177 190 192 193 103 74
211 206 212 212 213 202 202 203 201 204 209 217 218 205 208 279 320 280 94 321 307 201 351 274 257 254 144 166 235 207 188 142 122 181 172 220 225 197 179 226 164 184 210 169 158 171 209
209 210 208 210 212 200 198 199 198 199 212 217 209 168 187 265 164 136 110 316 88 16 305 233 203 71 162 189 140 104 195 79 165 164 155 234 172 159 178 210 174 197 124 135 115 146 174
252 208 210 209 211 205 200 195 193 195 208 208 216 189 165 187 333 152 83 315 51 73 244 274 140 193 169 229 177 121 132 66 135 123 24 225 311 189 215 192 181 124 88 53 57 98 230
242 214 204 204 202 198 203 198 194 190 200 210 200 175 171 167 187 125 139 54 133 197 354 207 210 39 212 193 195 147 150 140 147 151 217 290 238 222 162 203 134 111 113 221 194 181 235
231 225 201 206 207 199 195 190 184 181 191 205 189 164 206 191 142 142 75 104 181 209 215 345 328 258 177 115 168 122 128 151 182 116 131 178 168 187 168 198 185 183 180 168 213 204 179
218 229 206 209 208 199 197 198 189 183 186 188 153 166 173 186 155 113 140 166 206 205 154 206 118 125 55 343 111 122 110 162 189 187 151 154 168 103 162 152 185 149 172 95 104 28 253
231 228 215 209 209 202 193 190 184 176 181 159 174 179 203 158 156 129 164 199 194 168 237 193 121 352 118 343 82 103 160 322 110 99 242 188 122 56 165 144 55 131 136 134 54 179 238
213 216 278 201 204 202 190 185 184 182 173 161 169 186 156 146 121 149 194 198 168 183 272 62 127 96 85 50 54 52 192 351 28 318 156 134 104 217 131 24 143 133 134 66 99 60 195
220 230 229 208 190 197 192 186 175 176 165 159 168 196 170 149 141 171 172 180 145 146 203 122 97 72 94 37 49 75 142 325 335 240 138 60 111 119 127 171 226 157 131 140 142 181 67
222 229 225 249 182 186 185 181 179 178 166 164 161 129 202 208 184 167 161 145 137 147 175 107 100 299 38 119 78 53 17 320 348 31 141 164 65 102 77 47 63 143 118 107 107 112 186
230 211 222 298 192 185 183 181 174 175 172 148 134 138 173 232 70 161 155 165 147 153 140 125 115 108 79 353 346 191 126 347 349 61 66 86 102 155 188 154 142 173 175 150 134 156 175
224 219 216 233 210 191 182 180 172 178 177 126 187 145 106 194 201 186 170 165 173 151 64 122 88 187 168 182 254 224 195 25 4 306 53 83 114 100 74 62 18 318 201 168 208 192 205
231 220 212 217 306 182 186 180 179 179 167 126 130 138 91 56 150 165 171 192 188 160 147 177 176 204 180 178 185 213 174 204 197 14 73 6 140 110 348 40 29 287 192 235 245 253 250
235 202 213 234 250 195 185 180 181 174 162 144 112 53 136 164 159 168 178 165 173 147 211 156 189 141 199 220 180 213 144 120 154 125 106 74 139 124 237 23 354 284 239 236 238 241 247
223 201 198 226 222 234 180 181 181 174 178 127 178 113 110 140 179 179 159 153 156 180 144 178 141 180 212 113 106 87 62 110 139 141 143 134 111 66 147 162 251 293 201 185 226 255 240
224 215 202 210 233 228 197 179 182 174 168 118 123 133 124 121 129 147 153 156 86 112 161 151 185 174 151 116 86 71 3 62 249 41 224 135 116 95 170 218 325 279 160 134 184 283 251
212 203 212 203 226 219 283 176 174 162 143 97 103 90 79 121 204 142 147 166 164 141 113 167 45 108 98 108 125 169 190 176 193 104 39 65 62 123 131 201 241 231 194 157 147 297 252
208 197 210 219 213 251 286 173 172 174 148 111 100 129 112 124 208 125 156 174 123 117 140 152 167 152 117 145 135 163 202 191 174 166 157 126 68 172 169 218 278 239 180 137 135 247 265
201 205 208 227 225 269 262 184 175 164 157 132 153 180 140 100 105 174 123 130 120 148 149 176 95 287 83 159 162 182 177 210 183 161 171 160 170 186 172 198 255 176 122 177 208 221 237
204 204 201 195 213 234 239 207 174 165 158 132 105 21 81 80 142 45 68 90 57 152 133 34 134 170 169 138 166 141 168 182 162 202 334 203 192 181 190 207 227 205 220 208 174 223 225